GW3287 Weather Reports


time (UTC)temp
C
wind
direction
speed
KPH
gust
KPH
rain 1hr
cm
rain 24hr
cm
rain mn
cm
humidity
%
barometer
mb
20260503220458 19 263 14.5 27.4 0.00 0.00 0.00 44 1004.6
20260503215459 20 252 14.5 32.2 0.00 0.00 0.00 41 1004.7
20260503214958 20 261 12.9 29.0 0.00 0.00 0.00 42 1004.4
20260503214501 19 246 14.5 29.0 0.00 0.00 0.00 42 1004.6
20260503213458 19 167 17.7 32.2 0.00 0.00 0.00 41 1005.0
20260503212958 19 203 17.7 38.6 0.00 0.00 0.00 41 1005.0
20260503212501 19 261 17.7 38.6 0.00 0.00 0.00 41 1004.9
20260503211958 19 205 17.7 27.4 0.00 0.00 0.00 42 1004.9
20260503211458 19 261 16.1 37.0 0.00 0.00 0.00 41 1004.9
20260503210958 19 205 14.5 37.0 0.00 0.00 0.00 40 1005.0
20260503210501 20 185 11.3 37.0 0.00 0.00 0.00 41 1004.9
20260503210001 19 193 14.5 37.0 0.00 0.00 0.00 44 1005.1
20260503205001 18 237 19.3 46.7 0.00 0.00 0.00 46 1005.2
20260503204458 18 243 14.5 45.1 0.00 0.00 0.00 46 1005.4
20260503203958 18 248 12.9 35.4 0.00 0.00 0.00 47 1005.5
20260503203458 18 251 16.1 37.0 0.00 0.00 0.00 48 1005.5
20260503203000 18 226 17.7 37.0 0.00 0.00 0.00 48 1005.7
20260503202458 18 247 16.1 38.6 0.00 0.00 0.00 48 1005.9
20260503201958 17 216 17.7 38.6 0.00 0.00 0.00 48 1005.9
20260503201458 17 223 17.7 43.5 0.00 0.00 0.00 48 1006.1
20260503201001 17 215 20.9 43.5 0.00 0.00 0.00 47 1006.1
20260503200458 17 231 20.9 43.5 0.00 0.00 0.00 49 1006.2
20260503200000 17 192 24.1 48.3 0.00 0.00 0.00 48 1006.2
20260503195500 17 178 24.1 48.3 0.00 0.00 0.00 45 1006.3
20260503194001 18 226 22.5 49.9 0.00 0.00 0.00 42 1006.3
20260503193458 18 254 24.1 48.3 0.00 0.00 0.00 43 1006.3
20260503192958 18 221 22.5 48.3 0.00 0.00 0.00 42 1006.3
20260503192458 18 240 19.3 38.6 0.00 0.00 0.00 40 1006.3
20260503191458 18 242 16.1 40.2 0.00 0.00 0.00 42 1006.3
20260503190958 18 238 16.1 40.2 0.00 0.00 0.00 40 1006.5
20260503190458 18 194 16.1 35.4 0.00 0.00 0.00 40 1006.5
20260503190003 18 213 14.5 32.2 0.00 0.00 0.00 41 1006.4
20260503185458 18 242 16.1 38.6 0.00 0.00 0.00 42 1006.6
20260503184459 18 235 16.1 33.8 0.00 0.00 0.00 41 1006.7
20260503183458 18 204 14.5 38.6 0.00 0.00 0.00 43 1007.0
20260503182958 17 189 14.5 38.6 0.00 0.00 0.00 46 1007.0
20260503181458 16 231 12.9 30.6 0.00 0.00 0.00 51 1007.3
20260503180958 16 201 11.3 29.0 0.00 0.00 0.00 51 1007.3
20260503180500 16 160 11.3 30.6 0.00 0.00 0.00 53 1007.5
20260503180001 16 189 12.9 30.6 0.00 0.00 0.00 52 1007.6
20260503175458 16 263 16.1 29.0 0.00 0.00 0.00 53 1007.7
20260503174458 16 217 17.7 43.5 0.00 0.00 0.00 53 1007.8
20260503173958 16 217 12.9 38.6 0.00 0.00 0.00 52 1008.0
20260503173458 16 130 12.9 27.4 0.00 0.00 0.00 54 1008.1
20260503173001 15 222 14.5 48.3 0.00 0.00 0.00 53 1008.1
20260503172458 15 221 12.9 32.2 0.00 0.00 0.00 55 1008.3
20260503171958 15 233 11.3 29.0 0.00 0.00 0.00 58 1008.3
20260503171458 14 184 11.3 27.4 0.00 0.00 0.00 59 1008.5
20260503171000 13 238 11.3 32.2 0.00 0.00 0.00 59 1008.6
20260503170458 13 221 11.3 32.2 0.00 0.00 0.00 58 1008.6
20260503150957 14 259 16.1 43.5 0.00 0.00 0.00 52 1009.9
20260503150457 14 198 17.7 43.5 0.00 0.00 0.00 51 1010.0
20260503130959 11 215 14.5 30.6 0.00 0.00 0.00 55 1010.8
20260503130500 10 237 12.9 29.0 0.00 0.00 0.00 55 1011.0
20260503081459 9 228 9.7 22.5 0.00 0.00 0.00 50 1012.0
20260503080457 9 243 9.7 24.1 0.00 0.00 0.00 50 1011.9
20260503072456 8 191 6.4 17.7 0.00 0.00 0.00 53 1012.2
20260503071457 8 173 4.8 14.5 0.00 0.00 0.00 54 1012.3
20260503055000 6 242 3.2 11.3 0.00 0.00 0.00 62 1013.0
20260503053457 6 192 3.2 11.3 0.00 0.00 0.00 65 1013.2
20260503052959 6 226 3.2 11.3 0.00 0.00 0.00 65 1013.2
20260503052456 6 217 3.2 11.3 0.00 0.00 0.00 66 1013.2
20260503051456 5 208 3.2 6.4 0.00 0.00 0.00 68 1013.4
20260503051000 5 197 1.6 6.4 0.00 0.00 0.00 69 1013.4
20260503050456 5 214 1.6 8.0 0.00 0.00 0.00 70 1013.5
20260503045459 5 217 1.6 8.0 0.00 0.00 0.00 71 1013.5
20260503045000 5 205 1.6 6.4 0.00 0.00 0.00 71 1013.4
20260503044501 5 220 1.6 4.8 0.00 0.00 0.00 72 1013.6
20260503044002 5 210 1.6 6.4 0.00 0.00 0.00 72 1013.6
20260503043500 5 213 1.6 6.4 0.00 0.00 0.00 72 1013.5
20260503042959 5 216 1.6 6.4 0.00 0.00 0.00 72 1013.6
20260503042500 5 208 1.6 6.4 0.00 0.00 0.00 72 1013.6
20260503042003 5 216 1.6 8.0 0.00 0.00 0.00 72 1013.6
20260503041500 5 188 1.6 6.4 0.00 0.00 0.00 72 1013.6
20260503041000 5 220 1.6 4.8 0.00 0.00 0.00 72 1013.6
20260503040500 5 194 1.6 6.4 0.00 0.00 0.00 72 1013.7
20260503040004 5 192 1.6 6.4 0.00 0.00 0.00 71 1013.7
20260503035459 5 207 0.0 6.4 0.00 0.00 0.00 71 1013.7
20260503034500 5 197 0.0 4.8 0.00 0.00 0.00 71 1013.8
20260503033500 5 173 0.0 3.2 0.00 0.00 0.00 70 1013.9
20260503033003 5 202 0.0 3.2 0.00 0.00 0.00 70 1013.9
20260503032500 5 180 0.0 3.2 0.00 0.00 0.00 70 1014.0
20260503031500 5 187 0.0 4.8 0.00 0.00 0.00 69 1014.1
20260503031002 6 186 1.6 4.8 0.00 0.00 0.00 69 1014.2
20260503030002 6 192 1.6 4.8 0.00 0.00 0.00 69 1014.2
20260503025502 6 150 1.6 8.0 0.00 0.00 0.00 68 1014.3
20260503024959 6 183 1.6 8.0 0.00 0.00 0.00 68 1014.3
20260503024458 6 188 1.6 6.4 0.00 0.00 0.00 68 1014.3
20260503023959 6 198 1.6 8.0 0.00 0.00 0.00 67 1014.3
20260503023459 6 162 1.6 8.0 0.00 0.00 0.00 67 1014.3
20260503022959 6 180 1.6 4.8 0.00 0.00 0.00 67 1014.3
20260503022459 6 150 1.6 11.3 0.00 0.00 0.00 66 1014.3
20260503022002 6 183 1.6 11.3 0.00 0.00 0.00 66 1014.3
20260503021458 6 159 1.6 6.4 0.00 0.00 0.00 66 1014.3
20260503020459 6 177 1.6 8.0 0.00 0.00 0.00 65 1014.2
20260503020003 6 150 1.6 11.3 0.00 0.00 0.00 64 1014.2
20260503015459 7 192 1.6 11.3 0.00 0.00 0.00 64 1014.1
20260503014958 7 175 1.6 4.8 0.00 0.00 0.00 63 1014.2
20260503013959 7 176 3.2 8.0 0.00 0.00 0.00 62 1014.1
20260503013458 7 188 3.2 11.3 0.00 0.00 0.00 62 1014.1
20260503012959 7 188 4.8 12.9 0.00 0.00 0.00 61 1014.2
20260503011458 7 188 3.2 11.3 0.00 0.00 0.00 60 1014.1
20260503011001 7 175 3.2 11.3 0.00 0.00 0.00 60 1014.2
20260503010459 8 171 3.2 11.3 0.00 0.00 0.00 59 1014.2
20260503010001 8 157 3.2 11.3 0.00 0.00 0.00 58 1014.1
20260503005501 8 182 4.8 14.5 0.00 0.00 0.00 58 1014.1
20260503004958 8 157 3.2 14.5 0.00 0.00 0.00 57 1014.1
20260503004459 8 175 3.2 11.3 0.00 0.00 0.00 56 1014.2
20260503003959 8 184 3.2 11.3 0.00 0.00 0.00 56 1014.2
20260503003501 8 187 3.2 12.9 0.00 0.00 0.00 55 1014.2
20260503002958 8 135 4.8 16.1 0.00 0.00 0.00 55 1014.2
20260503002459 9 152 4.8 16.1 0.00 0.00 0.00 54 1014.2
20260503001959 9 175 4.8 16.1 0.00 0.00 0.00 53 1014.3
20260503001502 9 150 4.8 16.1 0.00 0.00 0.00 53 1014.4
20260503000959 9 127 6.4 20.9 0.00 0.00 0.00 53 1014.3
20260503000000 10 159 4.8 14.5 0.00 0.00 0.00 51 1014.3
20260502235501 10 123 4.8 17.7 0.00 0.00 0.00 52 1014.3
20260502234959 10 161 4.8 17.7 0.00 0.00 0.00 51 1014.5
20260502234459 10 152 6.4 16.1 0.00 0.00 0.00 51 1014.6
20260502233501 10 159 8.0 16.1 0.00 0.00 0.00 49 1014.6
20260502232458 10 147 6.4 19.3 0.00 0.00 0.00 49 1014.8
20260502231502 10 145 6.4 19.3 0.00 0.00 0.00 48 1014.8
20260502230959 10 136 6.4 16.1 0.00 0.00 0.00 49 1014.9
20260502230459 10 136 6.4 16.1 0.00 0.00 0.00 49 1014.9
20260502230002 10 101 8.0 16.1 0.00 0.00 0.00 50 1014.9
20260502225502 10 122 6.4 19.3 0.00 0.00 0.00 49 1014.9
20260502224958 10 129 4.8 14.5 0.00 0.00 0.00 49 1014.9
20260502224459 10 126 6.4 19.3 0.00 0.00 0.00 49 1015.0
20260502223959 10 145 8.0 19.3 0.00 0.00 0.00 48 1015.0
20260502223501 10 144 6.4 17.7 0.00 0.00 0.00 47 1015.2
20260502222959 10 116 8.0 17.7 0.00 0.00 0.00 48 1015.1
20260502222459 10 177 8.0 16.1 0.00 0.00 0.00 48 1015.3
20260502221959 10 99 8.0 17.7 0.00 0.00 0.00 48 1015.3
20260502221502 10 144 8.0 19.3 0.00 0.00 0.00 47 1015.2
20260502220959 11 171 9.7 19.3 0.00 0.00 0.00 47 1015.3